TimeEDT,TemperatureF,Dew PointF,Humidity,Sea Level PressureIn,VisibilityMPH,Wind Direction,Wind SpeedMPH,Gust SpeedMPH,PrecipitationIn,Events,Conditions,WindDirDegrees,DateUTC
1:29 AM,53.6,51.8,94,29.93,7.0,Calm,Calm,-,N/A,,Overcast,0,2013-05-10 05:29:00
1:52 AM,54.0,52.0,93,29.94,7.0,Calm,Calm,-,N/A,,Overcast,0,2013-05-10 05:52:00
2:35 AM,53.6,51.8,94,29.94,1.5,Calm,Calm,-,N/A,,Overcast,0,2013-05-10 06:35:00
2:38 AM,53.6,51.8,94,29.93,0.8,Calm,Calm,-,N/A,,Overcast,0,2013-05-10 06:38:00
2:52 AM,54.0,51.1,90,29.94,0.5,Calm,Calm,-,N/A,Fog,Fog,0,2013-05-10 06:52:00
3:22 AM,53.6,51.8,94,29.94,1.0,Calm,Calm,-,N/A,,Mist,0,2013-05-10 07:22:00
3:38 AM,53.6,50.0,88,29.95,0.8,Calm,Calm,-,N/A,,Mist,0,2013-05-10 07:38:00
3:52 AM,52.0,50.0,93,29.95,0.5,Calm,Calm,-,N/A,Fog,Fog,0,2013-05-10 07:52:00
4:25 AM,51.8,48.2,88,29.95,1.0,Calm,Calm,-,N/A,,Mist,0,2013-05-10 08:25:00
4:52 AM,51.1,48.9,92,29.96,0.8,Calm,Calm,-,N/A,,Mist,0,2013-05-10 08:52:00
5:52 AM,51.1,48.9,92,29.97,0.5,Calm,Calm,-,N/A,Fog,Fog,0,2013-05-10 09:52:00
6:01 AM,51.8,48.2,88,29.97,0.2,WSW,3.5,-,N/A,Fog,Fog,250,2013-05-10 10:01:00
6:52 AM,51.1,50.0,96,29.98,0.2,Calm,Calm,-,N/A,Fog,Fog,0,2013-05-10 10:52:00
6:59 AM,51.8,48.2,88,29.98,1.0,Calm,Calm,-,N/A,,Mist,0,2013-05-10 10:59:00
7:08 AM,51.8,48.2,88,29.98,1.5,Calm,Calm,-,N/A,,Overcast,0,2013-05-10 11:08:00
7:15 AM,51.8,50.0,94,29.98,1.2,Calm,Calm,-,N/A,,Overcast,0,2013-05-10 11:15:00
7:32 AM,51.8,48.2,88,29.99,1.8,Calm,Calm,-,N/A,,Overcast,0,2013-05-10 11:32:00
7:50 AM,51.8,48.2,88,29.98,1.0,SSW,3.5,-,N/A,,Overcast,200,2013-05-10 11:50:00
7:52 AM,52.0,50.0,93,29.99,0.8,Calm,Calm,-,N/A,,Overcast,0,2013-05-10 11:52:00
8:13 AM,51.8,48.2,88,29.99,0.2,Calm,Calm,-,N/A,Fog,Fog,0,2013-05-10 12:13:00
8:26 AM,53.6,50.0,88,29.99,0.8,Calm,Calm,-,N/A,,Mist,0,2013-05-10 12:26:00
8:33 AM,51.8,50.0,94,29.99,1.5,Calm,Calm,-,N/A,,Overcast,0,2013-05-10 12:33:00
8:38 AM,51.8,50.0,94,29.99,3.0,Calm,Calm,-,N/A,,Overcast,0,2013-05-10 12:38:00
8:52 AM,54.0,50.0,86,29.99,8.0,Calm,Calm,-,N/A,,Overcast,0,2013-05-10 12:52:00
9:19 AM,57.2,51.8,82,29.98,10.0,Calm,Calm,-,N/A,,Partly Cloudy,0,2013-05-10 13:19:00
9:52 AM,61.0,53.1,75,29.98,10.0,Calm,Calm,-,N/A,,Clear,0,2013-05-10 13:52:00
10:52 AM,66.9,51.1,57,29.98,10.0,WSW,3.5,-,N/A,,Clear,250,2013-05-10 14:52:00
11:52 AM,70.0,51.1,51,29.96,10.0,WSW,4.6,-,N/A,,Clear,240,2013-05-10 15:52:00
12:52 PM,73.0,50.0,44,29.94,10.0,NNW,4.6,-,N/A,,Clear,330,2013-05-10 16:52:00
1:52 PM,75.9,52.0,43,29.93,10.0,Variable,4.6,-,N/A,,Mostly Cloudy,0,2013-05-10 17:52:00
2:52 PM,75.0,42.1,31,29.92,10.0,SSW,5.8,-,N/A,,Clear,200,2013-05-10 18:52:00
3:52 PM,73.9,42.1,32,29.91,10.0,SSW,5.8,-,N/A,,Clear,210,2013-05-10 19:52:00
4:52 PM,73.9,46.0,37,29.91,10.0,Variable,3.5,-,N/A,,Clear,0,2013-05-10 20:52:00
5:52 PM,73.0,48.9,42,29.90,10.0,Calm,Calm,-,N/A,,Scattered Clouds,0,2013-05-10 21:52:00
6:52 PM,73.0,46.0,38,29.90,10.0,South,3.5,-,N/A,,Overcast,170,2013-05-10 22:52:00
7:52 PM,66.9,51.1,57,29.90,10.0,Calm,Calm,-,N/A,,Mostly Cloudy,0,2013-05-10 23:52:00
8:52 PM,64.0,50.0,60,29.89,10.0,Calm,Calm,-,N/A,,Partly Cloudy,0,2013-05-11 00:52:00
9:52 PM,63.0,50.0,63,29.90,10.0,Calm,Calm,-,N/A,,Clear,0,2013-05-11 01:52:00
10:52 PM,63.0,48.9,60,29.88,10.0,East,5.8,-,N/A,,Partly Cloudy,80,2013-05-11 02:52:00
11:52 PM,66.0,48.0,52,29.86,10.0,ENE,4.6,-,N/A,,Mostly Cloudy,70,2013-05-11 03:52:00